Flag for U.S.A. Weather past 2 weeks in Lowell, Massachusetts, U.S.A.

Now
72 °F

Passing clouds.


Feels Like: 70 °F
Forecast: 63 / 74 °F
Wind: No wind

Location: Hanscom Field

Current Time: Jul 24, 2014 at 1:10:16 AM

Latest Report: Jul 23, 2014 at 11:56 PM


Visibility: 10 mi

Pressure: 29.80 "Hg

Humidity: 87%

Dew point: 68 °F

Location of LowellLocation

Historic Weather in Lowell — Graph

°F

Lowell temperature yesterday

Maximum temperature yesterday: 90 °F (at 2:56 PM)
Minimum temperature yesterday: 69 °F (at 5:56 AM)
Average temperature yesterday: 79 °F

Past Weeks' High & Low Weather Summary

 TemperatureHumidityPressure
High90 °F (Jul 23, 2:56 PM)100% (Jul 10, 5:56 AM)30.29 "Hg (Jul 10, 5:56 AM)
Low54 °F (Jul 12, 3:56 AM)39% (Jul 12, 1:56 PM)29.68 "Hg (Jul 9, 12:56 AM)
Average72 °F76%30.04 "Hg
* Reported Jul 8 11:56 PM — Jul 23 11:56 PM, Lowell, Weather by CustomWeather, © 2014

Note: Actual official high and low records may vary slightly from our data, if they occured in-between our weather recording intervals... More about our weather records

Advertising

Lowell weather history for previous 24 hours

 ConditionsComfort  
Time TempWeatherWind HumidityBarometerVisibility
11:56 PM
Jul 23
72 °FPassing clouds.No wind87%29.80 "Hg10 mi
10:56 PM75 °FPassing clouds.8 mph74%29.81 "Hg10 mi
9:56 PM78 °FPartly cloudy.10 mph79%29.81 "Hg10 mi
8:56 PM79 °FSunny.12 mph79%29.80 "Hg10 mi
7:56 PM81 °FSunny.15 mph74%29.77 "Hg10 mi
6:56 PM82 °FPassing clouds.12 mph72%29.77 "Hg10 mi
5:56 PM87 °FBroken clouds.12 mph63%29.76 "Hg10 mi
4:56 PM88 °FBroken clouds.18 mph57%29.77 "Hg10 mi
3:56 PM89 °FBroken clouds.13 mph55%29.78 "Hg10 mi
2:56 PM90 °FSunny.15 mph52%29.80 "Hg10 mi
1:56 PM89 °FScattered clouds.10 mph57%29.82 "Hg10 mi
12:56 PM87 °FScattered clouds.13 mph61%29.85 "Hg10 mi
11:56 AM86 °FPassing clouds.10 mph63%29.86 "Hg10 mi
10:56 AM84 °FSunny.10 mph65%29.90 "Hg10 mi
9:56 AM81 °FSunny.10 mph72%29.92 "Hg10 mi
8:56 AM78 °FScattered clouds.9 mph76%29.94 "Hg10 mi
7:56 AM75 °FPassing clouds.8 mph79%29.94 "Hg10 mi
6:56 AM71 °FSunny.8 mph87%29.94 "Hg10 mi
5:56 AM69 °FClear.6 mph90%29.94 "Hg10 mi
4:56 AM70 °FClear.7 mph87%29.96 "Hg10 mi
3:56 AM70 °FClear.7 mph87%29.96 "Hg10 mi
1:56 AM72 °FClear.8 mph84%29.98 "Hg10 mi
Weather by CustomWeather, © 2014

See weather overviewHow to use our weather pages